SL-12 DEB, 42974

Orbit data source: Space-Track

SL-12 DEB, 42974 is space debris in HEO originally from a launch on Thu, 02 Sep 2010 UTC launched from the Tyuratam Missile And Space Complex (TTMTR). Debris objects in space refer to the collection of defunct objects orbiting the Earth. Examples of debris include non-operational satellites, rocket bodies, and fragments generated from explosions, collisions, or faulty payload assembly.

Loading next visibility...
Identifier
42974, 2010-041P
Orbit
HEO
Country
Flag of CISCIS
Related business
Manufacturer
RKKE
Mission
Spacecraft
Bus & Motor
Unknown
Mass
Unknown
Launch date (UTC)
2010-09-02 (16 years ago)
Launch vehicle
Unknown
Launch site
Tyuratam Missile And Space Complex (TTMTR)
Object type
Payload
Rocket body
Debris
Shape & HBR
Unknown shape, 0.6 m
Radar Cross Section
Medium (>0.1 m² and <1 m²)

Expand to show TLE details & history
Last TLE update: 2 days ago

TLE from 2 days ago
0 SL-12 DEB
1 42974U 10041P   26171.14321616 -.00000054  00000-0 -21555-3 0  9995
2 42974  64.9333  58.7675 5623018 309.4726  12.9477  4.32645722138063
Epoch: 2026-06-20T03:26Z
TLE epoch observation values (Epoch: 2026-06-20T03:26:13.876Z)
Latitude
-0.00011°
Longitude
98.85546°
Altitude
1,648.615 km
Speed
8.619 km/s
True Right ascension
03h 55m 06s
True Declination
0° 00' 00"
Sunlit
Object was in daylight at epoch
Visualization orbit readout
Latitude
Unknown
Longitude
Unknown
Altitude
Unknown
Speed
Unknown
Apparent Right ascension
Unknown
Apparent Declination
Unknown
Sunlit
N/A
Visualization observer readout
Local Sidereal Time
21:37:31
Azimuth
Unknown
Elevation
Unknown
Doppler factor
Unknown
Orbital elements
Apogee altitude
18,475.003 km
Perigee altitude
584.778 km
Semi-major axis
15,908.027 km
Eccentricity
0.5623
Inclination
64.9333°
RAAN
58.7675°
Arg. of periapsis
309.4726°
True anomaly
50.68296°
Mean anomaly
12.9477°
Eccentric anomaly
28.1447°
Mean motion
1.08173 °/min
Orbital period
332.8 mins
BSTAR
-0.00021555
Loading maneuver chart data...
Computing Atmospheric mass density...
Loading historical data...
Loading historical data...
Loading historical data...
Loading historical data...
Loading historical data...
Loading historical data...
Loading historical data...

Documentation

Showing up to 5 results
|